Location: Ste-F�licit�
(48.8999°N, 67.3360°W)
Time: 05:36:54
(UTC-05:00)

DELFI C3 - Pass Details

Date: 28 October 2020
Orbit: 532 x 551 km, 97.4° (Epoch: 28 November)

Event Time Altitude Azimuth Distance (km) Brightness Sun altitude
Exits shadow 19:53:10 14° 357° (N) 1,603 ? -26.5°
Drops below altitude 10° 19:53:45 10° 355° (N) 1,841 ? -26.6°
Sets 19:55:55 0° 351° (N) 2,738 ? -27.0°
